Regional Weather Roundup
Issued by NWS Kansas City/Pleasant Hill, MO

Home | Current Version | Previous Version | Graphics & Text | Print | Product List | Glossary Off
Versions: 1 2 3 4 5 6 7 8 9 10 11 12 13 14 15 16 17 18 19 20 21 22 23 24 25 26 27 28 29 30 31 32 33 34 35 36 37 38 39 40 41 42 43 44 45 46 47 48 49 50

000
ASUS43 KEAX 241510
RWREAX

WEATHER ROUNDUP FOR EASTERN KANSAS AND NORTHWEST MISSOURI
NATIONAL WEATHER SERVICE KANSAS CITY/PLEASANT HILL MO
1000 AM CDT TUE APR 24 2018

KSZ040-057-103>105-MOZ028-029-037-043-241600-
...KANSAS CITY METROPOLITAN AREA...

CITY           SKY/WX    TMP DP  RH WIND       PRES   REMARKS
K.C. INTL      MOSUNNY   65  35  33 N6        30.13S
K.C. DOWNTOWN  SUNNY     63  37  38 CALM      30.12S
LEES SUMMIT    SUNNY     64  36  35 N6        30.12S
OLATHE - IXD   SUNNY     64  39  39 VRB6      30.14S
OLATHE - OJC   SUNNY     64  35  34 NW7       30.13R
LAWRENCE       SUNNY     65  40  39 CALM      30.14R

$$

MOZ001>008-011>017-020>025-030>033-038>040-044>046-053-054-241600-
...NORTHERN AND CENTRAL MISSOURI...

CITY           SKY/WX    TMP DP  RH WIND       PRES   REMARKS
ST. JOSEPH     SUNNY     63  36  36 CALM      30.14S
MOSBY          SUNNY     64  34  32 N5        30.12S
WARRENSBURG    SUNNY     61  36  39 N5        30.11S
WHITEMAN AFB   MOSUNNY   60  40  47 N5        30.07R
CLINTON        SUNNY     61  43  51 CALM      30.11S
SEDALIA        SUNNY     61  50  67 N6        30.10S
WARSAW         NOT AVBL
CHILLICOTHE      N/A     61  37  41 VRB5      30.12S
KIRKSVILLE     SUNNY     64  50  60 NE8       30.09S

$$

MOZ041-047>049-056>058-063>065-088>090-097-241600-
...EASTERN AND SOUTHERN MISSOURI...

CITY           SKY/WX    TMP DP  RH WIND       PRES   REMARKS
ST. LOUIS INTL CLOUDY    58  53  84 N10       30.03S
SPIRIT OF STL  CLOUDY    59  54  83 N10       30.03S
COLUMBIA       MOSUNNY   63  50  62 NE15      30.06F
JEFFERSON CITY MOSUNNY   63  50  62 N12G23    30.06F
ROLLA          CLOUDY    58  50  75 N10       30.05F
OSAGE BEACH    MOSUNNY   61  52  72 N8        30.08F
SPRINGFIELD    SUNNY     61  50  67 VRB6      30.08S
BRANSON        SUNNY     63  43  48 NW9       30.09R
JOPLIN         SUNNY     64  43  46 N6        30.12S
WEST PLAINS    CLOUDY    59  52  77 N14       30.05S

$$

IAZ060-094-KSZ022-034>040-054-083-096-NEZ052-066-093-241600-
...KANSAS...SOUTHEAST NEBRASKA AND IOWA...

CITY           SKY/WX    TMP DP  RH WIND       PRES   REMARKS
TOPEKA         SUNNY     64  40  41 CALM      30.15R
MANHATTAN      SUNNY     61  41  47 E3        30.14F
EMPORIA        SUNNY     63  42  46 E5        30.14S
CHANUTE        SUNNY     67  40  37 N5        30.14S
WICHITA        MOSUNNY   65  44  46 CALM      30.14S
OMAHA          CLOUDY    59  40  49 CALM      30.16S
LINCOLN        MOSUNNY   56  38  50 E5        30.16F
FALLS CITY     CLOUDY    62  34  35 CALM      30.15R
LAMONI         SUNNY     64  37  36 VRB5      30.12R
DES MOINES     MOSUNNY   63  35  35 NW5       30.13R

$$




USA.gov is the U.S. government's official web portal to all federal, state and local government web resources and services.